Location: Belfast
(54.5830°N, 5.9330°W)
Time: 01:48:52
(UTC+01:00)

ISS - Pass Details

Date: 22 March 2017
Orbit: 399 x 409 km, 51.6° (Epoch: 30 March)

Event Time Altitude Azimuth Distance (km) Brightness Sun altitude
Exits shadow 04:19:18 13° 165° (SSE) 1,327 -1.4 -17.7°
Drops below altitude 10° 04:19:46 10° 159° (SSE) 1,468 -1.1 -17.7°
Sets 04:22:11 0° 142° (SE) 2,332 0.2 -17.3°
